Weather History for Pittsfield, MA

Change the Weather History Date:

Friday, May 2, 2014

  Actual Average Record
Temperature  
Mean Temperature 51 °F 51 °F  
Max Temperature 60 °F 62 °F 85 °F (1930)
Min Temperature 41 °F 39 °F 27 °F (1943)
Degree Days  
Heating Degree Days 14 15  
Month to date heating degree days 23 30  
Since 1 July heating degree days 7439 7065  
Cooling Degree Days 0 0  
Month to date cooling degree days 0 0  
Year to date cooling degree days 1 2  
Growing Degree Days 1 (Base 50)    
Moisture  
Dew Point 37 °F    
Average Humidity 60    
Maximum Humidity 76    
Minimum Humidity 43    
Precipitation  
Precipitation T in 0.11 in 0.75 in (1930)
Month to date precipitation 0.42 0.21  
Year to date precipitation 13.37 13.04  
Sea Level Pressure  
Sea Level Pressure 29.70 in    
Wind  
Wind Speed 7 mph (West)    
Max Wind Speed 20 mph    
Max Gust Speed 25 mph    
Visibility 10 miles    
Events Rain    
T = Trace of Precipitation, MM = Missing Value Source: NWS Daily Summary

Daily Weather History Graph

Daily Weather History Graph

Search for Another Location

Airport:

Trip Planner

Search our weather history database for the weather conditions in past years. The results will help you decide how hot, cold, wet, or windy it might be!

Date:

Astronomy

May. 02, 2014 Rise Set
Actual Time 5:46 AM EDT 7:54 PM EDT
Civil Twilight 5:16 AM EDT 8:24 PM EDT
Nautical Twilight 4:38 AM EDT 9:02 PM EDT
Astronomical Twilight 3:56 AM EDT 9:44 PM EDT
Moon 8:20 AM EDT (5/2) 11:15 PM EDT (5/2)
Length of Visible Light 15h 08m
Length of Day
14h 07m
Waxing Crescent, 12% of the Moon is Illuminated
May 2
Waxing Crescent
May 6
First Quarter
May 14
Full
May 21
Last Quarter
May 28
New

Hourly Weather History & Observations

Time (EDT) Temp. Windchill Dew Point Humidity Pressure Visibility Wind Dir Wind Speed Gust Speed Precip Events Conditions
12:54 AM 50.0 °F - 36.0 °F 59% 29.72 in 10.0 mi Calm Calm - 0.00 in Rain Light Rain
1:54 AM 46.9 °F - 37.9 °F 71% 29.71 in 10.0 mi WSW 4.6 mph - 0.00 in   Overcast
2:54 AM 45.0 °F - 37.0 °F 74% 29.69 in 10.0 mi Calm Calm - N/A   Scattered Clouds
3:54 AM 43.0 °F 40.3 °F 35.1 °F 74% 29.68 in 10.0 mi WNW 4.6 mph - N/A   Mostly Cloudy
4:54 AM 42.1 °F 39.2 °F 34.0 °F 73% 29.67 in 10.0 mi WNW 4.6 mph - N/A   Partly Cloudy
5:54 AM 42.1 °F 40.2 °F 34.0 °F 73% 29.66 in 10.0 mi SW 3.5 mph - N/A   Scattered Clouds
6:54 AM 44.1 °F 42.5 °F 37.0 °F 76% 29.68 in 10.0 mi SW 3.5 mph - N/A   Clear
8:54 AM 53.1 °F - 37.9 °F 57% 29.68 in 10.0 mi Variable 4.6 mph - N/A   Clear
9:54 AM 55.0 °F - 37.9 °F 53% 29.68 in 10.0 mi WSW 9.2 mph - N/A   Clear
10:54 AM 55.9 °F - 36.0 °F 47% 29.68 in 10.0 mi WSW 10.4 mph 17.3 mph N/A   Overcast
11:54 AM 55.9 °F - 37.9 °F 51% 29.68 in 10.0 mi SW 13.8 mph - N/A   Overcast
12:54 PM 59.0 °F - 37.0 °F 44% 29.66 in 10.0 mi WSW 12.7 mph 24.2 mph N/A   Overcast
1:54 PM 60.1 °F - 39.9 °F 47% 29.66 in 10.0 mi West 11.5 mph 19.6 mph N/A   Mostly Cloudy
2:54 PM 57.9 °F - 36.0 °F 44% 29.66 in 10.0 mi WNW 16.1 mph 25.3 mph N/A   Overcast
3:54 PM 59.0 °F - 37.9 °F 46% 29.67 in 10.0 mi NNW 6.9 mph 18.4 mph N/A   Mostly Cloudy
4:54 PM 57.0 °F - 39.0 °F 51% 29.68 in 10.0 mi WNW 9.2 mph - N/A   Overcast
5:54 PM 55.9 °F - 37.0 °F 49% 29.70 in 10.0 mi NW 9.2 mph - N/A   Overcast
6:54 PM 54.0 °F - 37.0 °F 53% 29.73 in 10.0 mi NW 8.1 mph - N/A   Overcast
7:54 PM 52.0 °F - 37.9 °F 59% 29.74 in 10.0 mi WNW 9.2 mph - N/A   Mostly Cloudy
8:54 PM 51.1 °F - 37.9 °F 61% 29.76 in 10.0 mi NW 5.8 mph - N/A   Mostly Cloudy
9:54 PM 50.0 °F - 37.9 °F 63% 29.78 in 10.0 mi Variable 4.6 mph - N/A   Overcast
10:54 PM 50.0 °F - 37.9 °F 63% 29.78 in 10.0 mi WSW 3.5 mph - N/A   Overcast
11:54 PM 46.9 °F - 37.0 °F 68% 29.78 in 10.0 mi WSW 4.6 mph - N/A   Mostly Cloudy